Ephrata, WA
on Wednesday, February 27, 2013

Wednesday
Previous Day Next Day
Daily Summary
 ActualAverageRecord
Temperature
Mean Temperature °F 37°F  
Max Temperature 49°F 47°F 64°F (1972)
Min Temperature 24°F 28°F 4°F (1993)
Degree Days
Heating Degree Days 28 28  
Month to date heating degree days 773 837  
Since 1 July heating degree days 4209 4545  
Cooling Degree Days 0 0  
Month to date cooling degree days 0 0  
Year to date cooling degree days 0 0  
Moisture
Dew Point 27°F   
Average Humidity 65    
Maximum Humidity 88    
Minimum Humidity 42    
Precipitation
Precipitation 0.00 in 0.03 in 0.40 in (1999)
Month to date precipitation T 0.71  
Year to date precipitation 0.19 1.62  
Wind
Wind Speed 4 mph   
Max Wind Speed 14 mph   
Max Gust Speed 16 mph   
Visibility 10 miles   
Events     

Key: T is trace of precipitation, MM is missing value
Source: NWS Daily Summary
Time(PST)TemperatureDew PointHumidity Pressure Visibility Wind DirectionWind SpeedGust SpeedPrecipitationEvents Conditions
12:53 AM 30.9°F 25.0°F 79% 30.22 in 10.0 miles North 8.1 mph - N/A   Clear
1:53 AM 28.0°F 24.1°F 85% 30.22 in 10.0 miles North 3.5 mph - N/A   Partly Cloudy
2:53 AM 27.0°F 23.0°F 85% 30.20 in 10.0 miles NNW 4.6 mph - N/A   Clear
3:53 AM 27.0°F 23.0°F 85% 30.20 in 10.0 miles North 5.8 mph - N/A   Clear
4:53 AM 25.0°F 21.9°F 88% 30.22 in 10.0 miles North 6.9 mph - N/A   Scattered Clouds
5:53 AM 26.1°F 23.0°F 88% 30.23 in 10.0 miles Calm Calm - N/A   Scattered Clouds
7:53 AM 32.0°F 27.0°F 82% 30.27 in 10.0 miles NNW 4.6 mph - N/A   Partly Cloudy
8:53 AM 35.1°F 28.0°F 76% 30.30 in 10.0 miles NE 3.5 mph - N/A   Clear
9:53 AM 36.0°F 27.0°F 70% 30.30 in 10.0 miles Calm Calm - N/A   Clear
10:53 AM 41.0°F 28.0°F 60% 30.29 in 10.0 miles Calm Calm - N/A   Clear
11:53 AM 45.0°F 28.9°F 53% 30.28 in 10.0 miles Calm Calm - N/A   Clear
12:53 PM 48.0°F 28.9°F 48% 30.27 in 10.0 miles SSE 11.5 mph - N/A   Clear
1:53 PM 46.9°F 28.9°F 50% 30.27 in 10.0 miles SE 5.8 mph - N/A   Clear
2:53 PM 48.0°F 27.0°F 44% 30.26 in 10.0 miles Calm Calm - N/A   Clear
3:53 PM 46.9°F 27.0°F 46% 30.25 in 10.0 miles SE 3.5 mph - N/A   Scattered Clouds
4:53 PM 46.0°F 28.9°F 51% 30.26 in 10.0 miles Calm Calm - N/A   Mostly Cloudy
5:53 PM 44.1°F 28.9°F 55% 30.25 in 10.0 miles Calm Calm - N/A   Partly Cloudy
6:53 PM 41.0°F 28.9°F 62% 30.23 in 10.0 miles Calm Calm - N/A   Partly Cloudy
7:53 PM 42.1°F 28.9°F 60% 30.24 in 10.0 miles North 3.5 mph - N/A   Clear
8:53 PM 41.0°F 30.0°F 65% 30.26 in 10.0 miles North 4.6 mph - N/A   Overcast
9:53 PM 41.0°F 30.0°F 65% 30.25 in 10.0 miles NNE 6.9 mph - N/A   Overcast
10:53 PM 39.0°F 30.0°F 70% 30.25 in 10.0 miles NNW 4.6 mph - N/A   Partly Cloudy
11:53 PM 39.0°F 30.0°F 70% 30.25 in 10.0 miles North 6.9 mph - N/A   Overcast
Moon Phase
Feb. 27 Mar. 04 Mar. 11 Mar. 19 Mar. 27
Sunrise:06:41 AM (PST) Moon Rise:08:21 PM (PST)2/27
Sunset:05:40 PM (PST) Moon Set:07:07 AM (PST)2/27

Copyright © 2014 The Weather Underground, Inc.